This is the latest recevied weather packets stored in our database for station/object KC5DAQ-29. If no packets are shown the sender has not sent any weather packets the latest 10 day(s).
| Time | Temp. | Humidity | Pressure | Rain* | Wind** | Luminosity | Snow |
|---|---|---|---|---|---|---|---|
| 1777662451 | 16.67° C | 100% | 1006.8 hPa | 5.59 mm | - | 11 W/m² | - |
| 1777662382 | 16.67° C | 100% | 1006.8 hPa | 5.59 mm | - | 12 W/m² | - |
| 1777662318 | 16.67° C | 100% | 1006.8 hPa | 5.33 mm | - | 12 W/m² | - |
| 1777662257 | 16.67° C | 100% | 1006.7 hPa | 5.33 mm | - | 12 W/m² | - |
| 1777662193 | 16.67° C | 100% | 1006.6 hPa | 5.59 mm | - | 12 W/m² | - |
| 1777662131 | 16.67° C | 100% | 1006.5 hPa | 5.33 mm | - | 11 W/m² | - |
| 1777662064 | 16.67° C | 100% | 1006.3 hPa | 5.33 mm | - | 11 W/m² | - |
| 1777662003 | 16.67° C | 100% | 1006.3 hPa | 4.83 mm | - | 11 W/m² | - |
| 1777661944 | 16.67° C | 100% | 1006.5 hPa | 4.83 mm | - | 11 W/m² | - |
| 1777661883 | 16.67° C | 100% | 1006.6 hPa | 4.83 mm | - | 11 W/m² | - |
| 1777661823 | 16.67° C | 100% | 1006.8 hPa | 4.83 mm | - | 11 W/m² | - |
| 1777661763 | 16.67° C | 100% | 1006.9 hPa | 4.83 mm | - | 9 W/m² | - |
| 1777661704 | 16.67° C | 100% | 1006.9 hPa | 4.57 mm | - | 9 W/m² | - |
| 1777661642 | 16.67° C | 100% | 1006.9 hPa | 4.32 mm | - | 9 W/m² | - |
| 1777661584 | 16.67° C | 100% | 1007 hPa | 4.57 mm | - | 9 W/m² | - |
| 1777661523 | 16.67° C | 100% | 1007 hPa | 4.57 mm | - | 9 W/m² | - |
| 1777661463 | 16.67° C | 100% | 1006.9 hPa | 4.57 mm | - | 9 W/m² | - |
| 1777661403 | 16.67° C | 100% | 1006.8 hPa | 4.32 mm | - | 9 W/m² | - |
| 1777661343 | 16.67° C | 100% | 1006.7 hPa | 4.57 mm | - | 9 W/m² | - |
| 1777661284 | 16.67° C | 100% | 1006.6 hPa | 4.32 mm | - | 11 W/m² | - |
| 1777661223 | 16.67° C | 100% | 1006.6 hPa | 4.32 mm | - | 11 W/m² | - |
| 1777661163 | 16.11° C | 100% | 1006.7 hPa | 4.06 mm | - | 7 W/m² | - |
| 1777661105 | 16.11° C | 100% | 1006.6 hPa | 4.06 mm | - | 7 W/m² | - |
| 1777661043 | 16.11° C | 100% | 1006.5 hPa | 4.06 mm | - | 7 W/m² | - |
| 1777660983 | 16.11° C | 100% | 1006.5 hPa | 4.06 mm | - | 9 W/m² | - |
* Rain latest hour (hover to see other rain measurements)
** Current wind speed in m/s (hover to see current wind gust speed)